This demonstration page uses our WeatherBlox Daily Observations layout. Learn more.

Left ArrowRight Arrow

40.92501, -98.34201

Hourly Observations for August 30, 2020

Temp ( °F °C ) Dew Point ( °F °C ) Humidity (%) Winds ( mph kmh ) Pressure ( in mb ) Visibility ( mi km ) Precip ( " mm )
12:53 am 00:53 Clear 61 16.1 52 11.1 72 72 S 3 6 29.90 1013 10 16 0.00 0.00
1:53 am 01:53 Clear 62 16.7 52 11.1 70 70 SSE 7 11 29.88 1012 10 16 0.00 0.00
2:53 am 02:53 Clear 64 17.8 49 9.4 58 58 SSE 13 20 29.87 1011 10 16 0.00 0.00
3:53 am 03:53 Clear 63 17.2 49 9.4 60 60 SSE 9 15 29.86 1011 10 16 0.00 0.00
4:53 am 04:53 Clear 62 16.7 50 10 65 65 SSE 9 15 29.85 1011 10 16 0.00 0.00
5:53 am 05:53 Clear 62 16.7 52 11.1 70 70 S 12 19 29.83 1010 10 16 0.00 0.00
6:53 am 06:53 Clear 62 16.7 53 11.7 73 73 SSE 9 15 29.83 1010 10 16 0.00 0.00
7:53 am 07:53 Sunny 63 17.2 55 12.8 76 76 S 10 17 29.83 1010 10 16 0.00 0.00
8:53 am 08:53 Sunny 67 19.4 56 13.3 68 68 S 13 20 29.82 1010 10 16 0.00 0.00
9:53 am 09:53 Sunny 73 22.8 59 15 62 62 S 15 24 29.79 1009 10 16 0.00 0.00
10:53 am 10:53 Sunny 76 24.4 59 15 56 56 S 17 28 29.78 1009 10 16 0.00 0.00
11:53 am 11:53 Sunny 79 26.1 60 15.6 52 52 S 18 30 29.76 1008 10 16 0.00 0.00
12:53 pm 12:53 Mostly Cloudy 80 26.7 62 16.7 54 54 S 15 24 29.73 1007 10 16 0.00 0.00
1:53 pm 13:53 Cloudy 79 26.1 62 16.7 56 56 SSW 18 30 29.71 1006 10 16 0.00 0.00
2:53 pm 14:53 Cloudy 80 26.7 63 17.2 56 56 S 20 31 29.68 1005 10 16 0.00 0.00
3:53 pm 15:53 Mostly Cloudy 80 26.7 63 17.2 56 56 SSE 16 26 29.66 1004 10 16 0.00 0.00
4:53 pm 16:53 Partly Cloudy 82 27.8 64 17.8 55 55 S 17 28 29.63 1003 10 16 0.00 0.00
5:53 pm 17:53 Partly Cloudy 80 26.7 64 17.8 58 58 S 16 26 29.62 1003 10 16 0.00 0.00
6:53 pm 18:53 Mostly Sunny 79 26.1 64 17.8 60 60 S 18 30 29.61 1003 10 16 0.00 0.00
7:53 pm 19:53 Sunny 76 24.4 64 17.8 67 67 S 13 20 29.62 1003 10 16 0.00 0.00
8:53 pm 20:53 Clear 73 22.8 65 18.3 76 76 SSE 8 13 29.63 1004 10 16 0.00 0.00
9:53 pm 21:53 Clear 73 22.8 65 18.3 76 76 S 10 17 29.64 1004 10 16 0.00 0.00
10:53 pm 22:53 Clear 70 21.1 64 17.8 82 82 SSE 7 11 29.65 1004 10 16 0.00 0.00
11:53 pm 23:53 Clear 71 21.7 64 17.8 79 79 SSE 8 13 29.64 1004 10 16 0.00 0.00

Powered by AerisWeather